Time,TemperatureF,DewpointF,PressureIn,WindDirection,WindDirectionDegrees,WindSpeedMPH,WindSpeedGustMPH,Humidity,HourlyPrecipIn,Conditions,Clouds,dailyrainin,SoftwareType,DateUTC
2013-01-21 08:13:00,49.5,32.6,30.00,ESE,112,0.0,0.0,52,0.00,,,0.00,VWS V14.01,2013-01-21 16:13:00,
2013-01-21 08:14:00,49.6,32.8,30.00,ESE,112,2.7,3.6,52,0.00,,,0.00,VWS V14.01,2013-01-21 16:14:00,
2013-01-21 08:17:00,49.5,32.6,30.00,ESE,112,3.1,3.1,52,0.00,,,0.00,VWS V14.01,2013-01-21 16:17:00,
2013-01-21 08:22:00,49.5,32.6,30.00,ESE,112,0.0,3.6,52,0.00,,,0.00,VWS V14.01,2013-01-21 16:22:00,
2013-01-21 08:27:00,49.6,32.8,30.00,ESE,112,3.6,3.6,52,0.00,,,0.00,VWS V14.01,2013-01-21 16:27:00,
2013-01-21 08:33:00,50.0,33.1,30.00,ESE,112,4.0,4.0,52,0.00,,,0.00,VWS V14.01,2013-01-21 16:33:00,
2013-01-21 08:38:00,49.8,32.4,30.00,ESE,112,0.0,2.2,51,0.00,,,0.00,VWS V14.01,2013-01-21 16:38:00,
2013-01-21 08:43:00,49.8,32.4,30.00,ESE,112,3.1,3.1,51,0.00,,,0.00,VWS V14.01,2013-01-21 16:43:00,
2013-01-21 08:48:00,50.0,32.1,30.00,SE,135,4.0,4.0,50,0.00,,,0.00,VWS V14.01,2013-01-21 16:48:00,
2013-01-21 08:53:00,50.2,32.3,30.00,ESE,112,3.6,3.6,50,0.00,,,0.00,VWS V14.01,2013-01-21 16:53:00,
2013-01-21 08:58:00,50.2,32.3,30.03,NE,45,2.7,2.7,50,0.00,,,0.00,VWS V14.01,2013-01-21 16:58:00,
2013-01-21 09:03:00,50.4,32.4,30.03,SSE,158,3.1,4.0,50,0.00,,,0.00,VWS V14.01,2013-01-21 17:03:00,
2013-01-21 09:08:00,50.5,32.6,30.03,SE,135,5.8,6.3,50,0.00,,,0.00,VWS V14.01,2013-01-21 17:08:00,
2013-01-21 09:13:00,50.5,32.6,30.03,ESE,112,2.2,3.6,50,0.00,,,0.00,VWS V14.01,2013-01-21 17:13:00,
2013-01-21 09:18:00,50.5,32.6,30.03,NNE,22,2.7,2.7,50,0.00,,,0.00,VWS V14.01,2013-01-21 17:18:00,
2013-01-21 09:24:00,50.7,32.3,30.03,NNE,22,3.1,3.1,49,0.00,,,0.00,VWS V14.01,2013-01-21 17:24:00,
2013-01-21 09:29:00,51.1,32.6,30.03,ESE,112,2.2,3.1,49,0.00,,,0.00,VWS V14.01,2013-01-21 17:29:00,
2013-01-21 09:34:00,51.3,32.3,30.03,NNE,22,2.7,3.1,48,0.00,,,0.00,VWS V14.01,2013-01-21 17:34:00,
2013-01-21 09:39:00,51.4,32.4,30.03,East,90,2.2,3.6,48,0.00,,,0.00,VWS V14.01,2013-01-21 17:39:00,
2013-01-21 09:44:00,51.6,31.5,30.03,NNE,22,4.5,5.4,46,0.00,,,0.00,VWS V14.01,2013-01-21 17:44:00,
2013-01-21 09:49:00,51.8,31.1,30.03,NE,45,3.6,5.8,45,0.00,,,0.00,VWS V14.01,2013-01-21 17:49:00,
2013-01-21 09:54:00,51.8,31.1,30.03,NE,45,3.1,3.6,45,0.00,,,0.00,VWS V14.01,2013-01-21 17:54:00,
2013-01-21 09:59:00,52.2,30.9,30.03,NNE,22,6.3,6.3,44,0.00,,,0.00,VWS V14.01,2013-01-21 17:59:00,
2013-01-21 10:04:00,52.5,31.8,30.03,ENE,68,3.1,4.9,45,0.00,,,0.00,VWS V14.01,2013-01-21 18:04:00,
2013-01-21 10:09:00,52.7,30.9,30.03,NNE,22,3.1,3.1,43,0.00,,,0.00,VWS V14.01,2013-01-21 18:09:00,
2013-01-21 10:15:00,52.7,31.4,30.03,NNE,22,0.0,2.7,44,0.00,,,0.00,VWS V14.01,2013-01-21 18:15:00,
2013-01-21 10:20:00,52.7,30.9,30.03,NNE,22,0.0,0.0,43,0.00,,,0.00,VWS V14.01,2013-01-21 18:20:00,
2013-01-21 10:25:00,52.9,31.0,30.03,North,0,0.0,0.0,43,0.00,,,0.00,VWS V14.01,2013-01-21 18:25:00,
2013-01-21 10:30:00,52.9,31.0,30.03,North,0,2.2,3.1,43,0.00,,,0.00,VWS V14.01,2013-01-21 18:30:00,
2013-01-21 10:35:00,53.1,31.2,30.03,North,0,0.0,0.0,43,0.00,,,0.00,VWS V14.01,2013-01-21 18:35:00,
2013-01-21 10:40:00,53.1,31.2,30.03,North,0,2.7,3.1,43,0.00,,,0.00,VWS V14.01,2013-01-21 18:40:00,
2013-01-21 10:45:00,53.2,31.3,30.03,ENE,68,0.0,2.7,43,0.00,,,0.00,VWS V14.01,2013-01-21 18:45:00,
2013-01-21 10:50:00,53.2,31.3,30.03,NNE,22,3.6,3.6,43,0.00,,,0.00,VWS V14.01,2013-01-21 18:50:00,
2013-01-21 10:55:00,53.1,31.7,30.03,NNE,22,2.7,2.7,44,0.00,,,0.00,VWS V14.01,2013-01-21 18:55:00,
2013-01-21 11:00:00,53.2,31.9,30.03,NNW,338,3.1,3.6,44,0.00,,,0.00,VWS V14.01,2013-01-21 19:00:00,
2013-01-21 11:06:00,53.1,31.7,30.03,NNW,338,2.7,3.6,44,0.00,,,0.00,VWS V14.01,2013-01-21 19:06:00,
2013-01-21 11:11:00,53.1,31.7,30.03,ENE,68,2.7,2.7,44,0.00,,,0.00,VWS V14.01,2013-01-21 19:11:00,
2013-01-21 11:16:00,53.2,32.5,30.06,NNW,338,2.7,3.6,45,0.00,,,0.00,VWS V14.01,2013-01-21 19:16:00,
2013-01-21 11:21:00,53.2,33.0,30.06,North,0,3.1,3.6,46,0.00,,,0.00,VWS V14.01,2013-01-21 19:21:00,
2013-01-21 11:26:00,53.2,33.0,30.06,NNE,22,2.7,3.1,46,0.00,,,0.00,VWS V14.01,2013-01-21 19:26:00,
2013-01-21 11:31:00,53.2,33.0,30.03,NNW,338,2.2,2.7,46,0.00,,,0.00,VWS V14.01,2013-01-21 19:31:00,
2013-01-21 11:36:00,53.4,33.2,30.03,NNW,338,0.0,3.6,46,0.00,,,0.00,VWS V14.01,2013-01-21 19:36:00,
2013-01-21 11:41:00,53.4,32.6,30.03,NNW,338,3.1,3.1,45,0.00,,,0.00,VWS V14.01,2013-01-21 19:41:00,
2013-01-21 11:47:00,53.4,32.1,30.03,North,0,3.1,3.6,44,0.00,,,0.00,VWS V14.01,2013-01-21 19:47:00,
2013-01-21 11:52:00,53.8,31.8,30.03,North,0,3.1,3.6,43,0.00,,,0.00,VWS V14.01,2013-01-21 19:52:00,
2013-01-21 11:57:00,54.0,32.0,30.03,North,0,3.6,3.6,43,0.00,,,0.00,VWS V14.01,2013-01-21 19:57:00,
2013-01-21 12:02:00,54.1,32.2,30.03,NNW,338,3.6,3.6,43,0.00,,,0.00,VWS V14.01,2013-01-21 20:02:00,
2013-01-21 12:07:00,54.3,31.7,30.03,North,0,3.1,4.0,42,0.00,,,0.00,VWS V14.01,2013-01-21 20:07:00,
2013-01-21 12:12:00,54.5,31.3,30.03,North,0,2.2,3.1,41,0.00,,,0.00,VWS V14.01,2013-01-21 20:12:00,
2013-01-21 12:17:00,54.7,31.5,30.03,NW,315,4.0,4.0,41,0.00,,,0.00,VWS V14.01,2013-01-21 20:17:00,
2013-01-21 12:22:00,54.9,31.6,30.03,NNW,338,4.0,5.4,41,0.00,,,0.00,VWS V14.01,2013-01-21 20:22:00,
2013-01-21 12:27:00,55.2,32.0,30.03,NNW,338,4.0,4.0,41,0.00,,,0.00,VWS V14.01,2013-01-21 20:27:00,
2013-01-21 12:32:00,55.8,31.8,30.03,ENE,68,0.0,4.0,40,0.00,,,0.00,VWS V14.01,2013-01-21 20:32:00,
2013-01-21 12:37:00,56.5,31.8,30.03,NNW,338,2.7,3.1,39,0.00,,,0.00,VWS V14.01,2013-01-21 20:37:00,
2013-01-21 12:42:00,57.6,32.2,30.00,North,0,2.7,3.1,38,0.00,,,0.00,VWS V14.01,2013-01-21 20:42:00,
2013-01-21 12:48:00,58.8,32.6,30.00,North,0,3.6,3.6,37,0.00,,,0.00,VWS V14.01,2013-01-21 20:48:00,
2013-01-21 12:53:00,59.4,32.4,30.00,North,0,2.2,3.6,36,0.00,,,0.00,VWS V14.01,2013-01-21 20:53:00,
2013-01-21 12:58:00,59.9,32.9,30.00,NNE,22,2.2,3.6,36,0.00,,,0.00,VWS V14.01,2013-01-21 20:58:00,
2013-01-21 13:03:00,60.6,33.5,30.00,North,0,3.1,3.6,36,0.00,,,0.00,VWS V14.01,2013-01-21 21:03:00,
2013-01-21 13:08:00,60.3,33.2,30.00,NNE,22,0.0,2.7,36,0.00,,,0.00,VWS V14.01,2013-01-21 21:08:00,
2013-01-21 13:13:00,60.1,33.1,30.03,NNW,338,2.2,2.7,36,0.00,,,0.00,VWS V14.01,2013-01-21 21:13:00,
2013-01-21 13:18:00,60.1,33.1,30.03,NNW,338,3.6,4.0,36,0.00,,,0.00,VWS V14.01,2013-01-21 21:18:00,
2013-01-21 13:23:00,59.9,32.9,30.03,NNW,338,3.1,3.6,36,0.00,,,0.00,VWS V14.01,2013-01-21 21:23:00,
2013-01-21 13:28:00,58.8,32.6,30.00,North,0,3.1,3.6,37,0.00,,,0.00,VWS V14.01,2013-01-21 21:28:00,
2013-01-21 13:33:00,58.1,32.0,30.00,NNE,22,0.0,4.0,37,0.00,,,0.00,VWS V14.01,2013-01-21 21:33:00,
2013-01-21 13:38:00,57.7,31.7,30.00,NE,45,2.7,4.0,37,0.00,,,0.00,VWS V14.01,2013-01-21 21:38:00,
2013-01-21 13:43:00,57.7,31.7,30.00,North,0,2.7,3.6,37,0.00,,,0.00,VWS V14.01,2013-01-21 21:43:00,
2013-01-21 13:48:00,57.6,31.5,30.00,North,0,3.1,3.1,37,0.00,,,0.00,VWS V14.01,2013-01-21 21:48:00,
2013-01-21 13:53:00,57.6,31.5,30.00,NNE,22,0.0,0.0,37,0.00,,,0.00,VWS V14.01,2013-01-21 21:53:00,
2013-01-21 13:59:00,57.7,31.7,30.00,ENE,68,2.7,2.7,37,0.00,,,0.00,VWS V14.01,2013-01-21 21:59:00,
2013-01-21 14:04:00,57.7,31.7,30.00,NNW,338,2.7,2.7,37,0.00,,,0.00,VWS V14.01,2013-01-21 22:04:00,
2013-01-21 14:09:00,57.7,31.7,30.00,ENE,68,0.0,0.0,37,0.00,,,0.00,VWS V14.01,2013-01-21 22:09:00,
2013-01-21 14:14:00,57.7,31.7,30.00,NE,45,0.0,0.0,37,0.00,,,0.00,VWS V14.01,2013-01-21 22:14:00,
2013-01-21 14:19:00,57.9,31.8,30.00,North,0,0.0,0.0,37,0.00,,,0.00,VWS V14.01,2013-01-21 22:19:00,
2013-01-21 14:24:00,58.1,32.0,30.00,North,0,0.0,0.0,37,0.00,,,0.00,VWS V14.01,2013-01-21 22:24:00,
2013-01-21 14:29:00,58.3,32.2,30.00,North,0,0.0,0.0,37,0.00,,,0.00,VWS V14.01,2013-01-21 22:29:00,
2013-01-21 14:34:00,58.5,31.6,30.00,North,0,0.0,0.0,36,0.00,,,0.00,VWS V14.01,2013-01-21 22:34:00,
2013-01-21 14:39:00,58.8,32.0,30.00,North,0,0.0,2.7,36,0.00,,,0.00,VWS V14.01,2013-01-21 22:39:00,
2013-01-21 14:44:00,59.2,31.6,30.00,North,0,0.0,0.0,35,0.00,,,0.00,VWS V14.01,2013-01-21 22:44:00,
2013-01-21 14:49:00,59.5,31.9,30.00,NE,45,2.2,2.7,35,0.00,,,0.00,VWS V14.01,2013-01-21 22:49:00,
2013-01-21 14:54:00,59.7,31.3,30.00,NNE,22,0.0,0.0,34,0.00,,,0.00,VWS V14.01,2013-01-21 22:54:00,
2013-01-21 14:59:00,60.1,31.6,30.00,NE,45,3.1,3.1,34,0.00,,,0.00,VWS V14.01,2013-01-21 22:59:00,
2013-01-21 15:04:00,60.6,32.1,30.00,NNE,22,0.0,2.7,34,0.00,,,0.00,VWS V14.01,2013-01-21 23:04:00,
2013-01-21 15:09:00,60.6,32.1,30.00,NE,45,3.1,3.1,34,0.00,,,0.00,VWS V14.01,2013-01-21 23:09:00,
2013-01-21 15:14:00,60.6,32.1,30.00,NNE,22,4.0,4.0,34,0.00,,,0.00,VWS V14.01,2013-01-21 23:14:00,
2013-01-21 15:19:00,60.6,32.1,30.00,ENE,68,3.6,3.6,34,0.00,,,0.00,VWS V14.01,2013-01-21 23:19:00,
2013-01-21 15:24:00,60.6,32.8,30.00,North,0,3.6,3.6,35,0.00,,,0.00,VWS V14.01,2013-01-21 23:24:00,
2013-01-21 15:30:00,60.6,32.8,30.00,ENE,68,4.0,4.0,35,0.00,,,0.00,VWS V14.01,2013-01-21 23:30:00,
2013-01-21 15:35:00,60.6,32.1,30.00,NNW,338,3.6,4.9,34,0.00,,,0.00,VWS V14.01,2013-01-21 23:35:00,
2013-01-21 15:40:00,60.4,32.7,30.00,NE,45,0.0,0.0,35,0.00,,,0.00,VWS V14.01,2013-01-21 23:40:00,
2013-01-21 15:45:00,60.3,32.5,29.97,SSE,158,0.0,0.0,35,0.00,,,0.00,VWS V14.01,2013-01-21 23:45:00,
2013-01-21 15:50:00,60.4,32.7,29.97,NE,45,2.2,2.7,35,0.00,,,0.00,VWS V14.01,2013-01-21 23:50:00,
2013-01-21 15:55:00,60.6,32.8,29.97,NE,45,0.0,0.0,35,0.00,,,0.00,VWS V14.01,2013-01-21 23:55:00,
2013-01-21 16:00:00,60.6,32.8,29.97,ENE,68,2.7,3.6,35,0.00,,,0.00,VWS V14.01,2013-01-22 00:00:00,
2013-01-21 16:05:00,60.8,33.0,29.97,NE,45,0.0,2.7,35,0.00,,,0.00,VWS V14.01,2013-01-22 00:05:00,
2013-01-21 16:10:00,60.8,33.0,29.97,NNW,338,4.0,4.0,35,0.00,,,0.00,VWS V14.01,2013-01-22 00:10:00,
2013-01-21 16:15:00,60.8,33.0,29.97,NNE,22,4.9,4.9,35,0.00,,,0.00,VWS V14.01,2013-01-22 00:15:00,
2013-01-21 16:20:00,60.6,32.8,29.97,NW,315,0.0,2.2,35,0.00,,,0.00,VWS V14.01,2013-01-22 00:20:00,
2013-01-21 16:25:00,60.4,33.4,29.97,ENE,68,2.7,4.0,36,0.00,,,0.00,VWS V14.01,2013-01-22 00:25:00,
2013-01-21 16:30:00,60.3,33.2,29.97,NE,45,0.0,4.0,36,0.00,,,0.00,VWS V14.01,2013-01-22 00:30:00,
2013-01-21 16:35:00,60.1,33.1,29.97,SE,135,0.0,0.0,36,0.00,,,0.00,VWS V14.01,2013-01-22 00:35:00,
2013-01-21 16:40:00,59.9,32.9,29.97,ESE,112,2.7,2.7,36,0.00,,,0.00,VWS V14.01,2013-01-22 00:40:00,
2013-01-21 16:45:00,59.7,32.7,29.97,NE,45,0.0,0.0,36,0.00,,,0.00,VWS V14.01,2013-01-22 00:45:00,
2013-01-21 16:50:00,59.5,32.6,29.97,ENE,68,0.0,0.0,36,0.00,,,0.00,VWS V14.01,2013-01-22 00:50:00,
2013-01-21 16:55:00,59.2,33.0,29.97,NE,45,0.0,0.0,37,0.00,,,0.00,VWS V14.01,2013-01-22 00:55:00,
2013-01-21 17:00:00,59.0,32.8,29.97,NE,45,0.0,0.0,37,0.00,,,0.00,VWS V14.01,2013-01-22 01:00:00,
2013-01-21 17:05:00,58.8,32.6,29.97,NE,45,4.0,4.0,37,0.00,,,0.00,VWS V14.01,2013-01-22 01:05:00,
2013-01-21 17:10:00,58.8,32.6,29.97,East,90,0.0,2.2,37,0.00,,,0.00,VWS V14.01,2013-01-22 01:10:00,
2013-01-21 17:15:00,59.0,32.1,29.97,NNE,22,3.6,3.6,36,0.00,,,0.00,VWS V14.01,2013-01-22 01:15:00,
2013-01-21 17:20:00,59.2,32.3,29.97,NNE,22,3.1,4.0,36,0.00,,,0.00,VWS V14.01,2013-01-22 01:20:00,
2013-01-21 17:25:00,59.2,32.3,29.97,NNE,22,3.6,4.0,36,0.00,,,0.00,VWS V14.01,2013-01-22 01:25:00,
2013-01-21 17:30:00,58.8,32.6,29.97,North,0,0.0,0.0,37,0.00,,,0.00,VWS V14.01,2013-01-22 01:30:00,
2013-01-21 17:35:00,58.8,32.6,29.97,ESE,112,0.0,0.0,37,0.00,,,0.00,VWS V14.01,2013-01-22 01:35:00,
2013-01-21 17:40:00,58.6,31.8,29.97,SSW,202,0.0,2.7,36,0.00,,,0.00,VWS V14.01,2013-01-22 01:40:00,
2013-01-21 17:45:00,58.3,31.5,29.97,SSW,202,0.0,0.0,36,0.00,,,0.00,VWS V14.01,2013-01-22 01:45:00,
2013-01-21 17:50:00,57.9,31.1,29.97,SSW,202,0.0,0.0,36,0.00,,,0.00,VWS V14.01,2013-01-22 01:50:00,
2013-01-21 17:55:00,57.9,31.1,29.97,SSW,202,2.2,2.7,36,0.00,,,0.00,VWS V14.01,2013-01-22 01:55:00,
2013-01-21 18:00:00,58.1,31.3,29.97,SSW,202,0.0,0.0,36,0.00,,,0.00,VWS V14.01,2013-01-22 02:00:00,
2013-01-21 18:06:00,58.1,31.3,29.97,SSW,202,0.0,0.0,36,0.00,,,0.00,VWS V14.01,2013-01-22 02:06:00,
2013-01-21 18:11:00,57.9,31.8,29.97,SSW,202,0.0,0.0,37,0.00,,,0.00,VWS V14.01,2013-01-22 02:11:00,
2013-01-21 18:16:00,57.6,31.5,29.97,SSW,202,0.0,0.0,37,0.00,,,0.00,VWS V14.01,2013-01-22 02:16:00,
2013-01-21 18:21:00,57.2,31.2,29.97,SSW,202,0.0,2.7,37,0.00,,,0.00,VWS V14.01,2013-01-22 02:21:00,
2013-01-21 18:26:00,56.7,31.4,29.97,SSW,202,0.0,0.0,38,0.00,,,0.00,VWS V14.01,2013-01-22 02:26:00,
2013-01-21 18:31:00,56.7,31.4,29.97,SSW,202,0.0,0.0,38,0.00,,,0.00,VWS V14.01,2013-01-22 02:31:00,
2013-01-21 18:36:00,56.3,31.0,29.97,South,180,2.7,3.1,38,0.00,,,0.00,VWS V14.01,2013-01-22 02:36:00,
2013-01-21 18:41:00,56.3,31.0,29.97,South,180,2.2,2.7,38,0.00,,,0.00,VWS V14.01,2013-01-22 02:41:00,
2013-01-21 18:46:00,56.3,31.0,29.97,SSW,202,3.1,3.1,38,0.00,,,0.00,VWS V14.01,2013-01-22 02:46:00,
2013-01-21 18:51:00,56.3,31.0,29.97,SSW,202,0.0,0.0,38,0.00,,,0.00,VWS V14.01,2013-01-22 02:51:00,
2013-01-21 18:56:00,55.9,30.7,29.97,SSW,202,0.0,0.0,38,0.00,,,0.00,VWS V14.01,2013-01-22 02:56:00,
2013-01-21 19:01:00,55.8,30.6,29.97,SSW,202,0.0,0.0,38,0.00,,,0.00,VWS V14.01,2013-01-22 03:01:00,
2013-01-21 19:06:00,55.6,30.4,29.97,SSW,202,0.0,0.0,38,0.00,,,0.00,VWS V14.01,2013-01-22 03:06:00,
2013-01-21 19:11:00,55.6,31.0,29.97,SE,135,0.0,2.2,39,0.00,,,0.00,VWS V14.01,2013-01-22 03:11:00,
2013-01-21 19:16:00,55.4,30.9,29.97,SE,135,0.0,0.0,39,0.00,,,0.00,VWS V14.01,2013-01-22 03:16:00,
2013-01-21 19:21:00,55.4,30.9,29.97,ESE,112,0.0,0.0,39,0.00,,,0.00,VWS V14.01,2013-01-22 03:21:00,
2013-01-21 19:26:00,55.0,31.2,29.97,NE,45,0.0,0.0,40,0.00,,,0.00,VWS V14.01,2013-01-22 03:26:00,
2013-01-21 19:31:00,54.9,31.6,29.97,ESE,112,0.0,0.0,41,0.00,,,0.00,VWS V14.01,2013-01-22 03:31:00,
2013-01-21 19:36:00,54.7,31.5,29.97,ESE,112,0.0,0.0,41,0.00,,,0.00,VWS V14.01,2013-01-22 03:36:00,
2013-01-21 19:41:00,54.7,31.5,29.97,ESE,112,0.0,2.2,41,0.00,,,0.00,VWS V14.01,2013-01-22 03:41:00,
2013-01-21 19:46:00,54.5,31.3,29.97,ESE,112,0.0,0.0,41,0.00,,,0.00,VWS V14.01,2013-01-22 03:46:00,
2013-01-21 19:51:00,54.7,30.9,29.97,ESE,112,0.0,0.0,40,0.00,,,0.00,VWS V14.01,2013-01-22 03:51:00,
2013-01-21 19:56:00,54.3,30.5,29.97,ESE,112,0.0,0.0,40,0.00,,,0.00,VWS V14.01,2013-01-22 03:56:00,
2013-01-21 20:01:00,54.5,30.7,29.97,NNE,22,0.0,2.7,40,0.00,,,0.00,VWS V14.01,2013-01-22 04:01:00,
2013-01-21 20:06:00,54.7,30.9,29.97,North,0,0.0,0.0,40,0.00,,,0.00,VWS V14.01,2013-01-22 04:06:00,
2013-01-21 20:11:00,54.7,30.9,29.97,ESE,112,0.0,0.0,40,0.00,,,0.00,VWS V14.01,2013-01-22 04:11:00,
2013-01-21 20:16:00,54.7,30.2,29.97,East,90,0.0,0.0,39,0.00,,,0.00,VWS V14.01,2013-01-22 04:16:00,
2013-01-21 20:21:00,54.5,30.1,29.97,East,90,0.0,0.0,39,0.00,,,0.00,VWS V14.01,2013-01-22 04:21:00,
2013-01-21 20:26:00,54.7,30.2,29.97,NE,45,3.6,3.6,39,0.00,,,0.00,VWS V14.01,2013-01-22 04:26:00,
2013-01-21 20:31:00,54.7,30.2,29.97,NNE,22,2.2,2.7,39,0.00,,,0.00,VWS V14.01,2013-01-22 04:31:00,
2013-01-21 20:36:00,54.7,30.2,29.97,ESE,112,0.0,0.0,39,0.00,,,0.00,VWS V14.01,2013-01-22 04:36:00,
2013-01-21 20:41:00,54.5,30.1,29.97,NE,45,0.0,0.0,39,0.00,,,0.00,VWS V14.01,2013-01-22 04:41:00,
2013-01-21 20:46:00,54.3,29.9,29.97,South,180,0.0,0.0,39,0.00,,,0.00,VWS V14.01,2013-01-22 04:46:00,
2013-01-21 20:51:00,54.0,29.6,29.97,South,180,0.0,0.0,39,0.00,,,0.00,VWS V14.01,2013-01-22 04:51:00,
2013-01-21 20:56:00,54.1,29.8,29.97,ESE,112,0.0,0.0,39,0.00,,,0.00,VWS V14.01,2013-01-22 04:56:00,
2013-01-21 21:00:00,54.0,30.2,29.97,South,180,0.0,0.0,40,0.00,,,0.00,VWS V14.01,2013-01-22 05:00:00,
2013-01-21 21:01:00,54.0,30.2,29.97,South,180,0.0,0.0,40,0.00,,,0.00,VWS V14.01,2013-01-22 05:01:00,
2013-01-21 21:02:00,54.0,30.2,29.97,SSE,158,2.7,2.7,40,0.00,,,0.00,VWS V14.01,2013-01-22 05:02:00,
2013-01-21 21:07:00,54.0,30.2,29.97,ESE,112,0.0,0.0,40,0.00,,,0.00,VWS V14.01,2013-01-22 05:07:00,
2013-01-21 21:12:00,53.8,30.0,29.97,ESE,112,2.7,2.7,40,0.00,,,0.00,VWS V14.01,2013-01-22 05:12:00,
2013-01-21 21:17:00,53.8,30.0,29.97,ESE,112,2.7,3.1,40,0.00,,,0.00,VWS V14.01,2013-01-22 05:17:00,
2013-01-21 21:22:00,53.6,30.5,29.97,ESE,112,0.0,2.2,41,0.00,,,0.00,VWS V14.01,2013-01-22 05:22:00,
2013-01-21 21:27:00,53.8,30.6,29.97,ESE,112,3.1,3.1,41,0.00,,,0.00,VWS V14.01,2013-01-22 05:27:00,
2013-01-21 21:32:00,54.0,30.8,30.00,East,90,2.7,5.4,41,0.00,,,0.00,VWS V14.01,2013-01-22 05:32:00,
2013-01-21 21:37:00,53.8,30.6,30.00,ENE,68,2.2,2.2,41,0.00,,,0.00,VWS V14.01,2013-01-22 05:37:00,
2013-01-21 21:42:00,53.6,30.5,30.00,ESE,112,0.0,0.0,41,0.00,,,0.00,VWS V14.01,2013-01-22 05:42:00,
2013-01-21 21:47:00,53.4,30.9,30.00,ENE,68,4.0,4.0,42,0.00,,,0.00,VWS V14.01,2013-01-22 05:47:00,
2013-01-21 21:52:00,53.8,30.6,30.00,ENE,68,0.0,0.0,41,0.00,,,0.00,VWS V14.01,2013-01-22 05:52:00,
2013-01-21 21:58:00,53.8,30.6,30.00,NNE,22,2.7,4.0,41,0.00,,,0.00,VWS V14.01,2013-01-22 05:58:00,
2013-01-21 22:03:00,53.6,30.5,30.00,East,90,2.7,3.1,41,0.00,,,0.00,VWS V14.01,2013-01-22 06:03:00,
2013-01-21 22:08:00,53.6,31.1,30.00,ENE,68,2.2,4.9,42,0.00,,,0.00,VWS V14.01,2013-01-22 06:08:00,
2013-01-21 22:13:00,53.6,31.1,30.00,NE,45,0.0,0.0,42,0.00,,,0.00,VWS V14.01,2013-01-22 06:13:00,
2013-01-21 22:18:00,53.6,31.1,30.00,NE,45,2.7,2.7,42,0.00,,,0.00,VWS V14.01,2013-01-22 06:18:00,
2013-01-21 22:23:00,53.6,31.1,30.00,NE,45,2.2,2.2,42,0.00,,,0.00,VWS V14.01,2013-01-22 06:23:00,
2013-01-21 22:28:00,53.6,31.1,30.00,ESE,112,2.7,2.7,42,0.00,,,0.00,VWS V14.01,2013-01-22 06:28:00,
2013-01-21 22:33:00,53.4,31.5,30.00,NE,45,4.0,4.0,43,0.00,,,0.00,VWS V14.01,2013-01-22 06:33:00,
2013-01-21 22:38:00,53.4,32.1,30.00,ESE,112,0.0,0.0,44,0.00,,,0.00,VWS V14.01,2013-01-22 06:38:00,
2013-01-21 22:43:00,53.2,31.9,30.00,NE,45,0.0,0.0,44,0.00,,,0.00,VWS V14.01,2013-01-22 06:43:00,
2013-01-21 22:48:00,53.2,32.5,30.00,NNW,338,3.6,4.0,45,0.00,,,0.00,VWS V14.01,2013-01-22 06:48:00,
2013-01-21 22:53:00,53.2,32.5,30.00,North,0,2.7,3.1,45,0.00,,,0.00,VWS V14.01,2013-01-22 06:53:00,
2013-01-21 22:58:00,53.1,32.3,29.97,NNE,22,3.1,3.1,45,0.00,,,0.00,VWS V14.01,2013-01-22 06:58:00,
2013-01-21 23:03:00,53.1,32.3,29.97,NE,45,0.0,0.0,45,0.00,,,0.00,VWS V14.01,2013-01-22 07:03:00,
2013-01-21 23:08:00,53.1,31.7,29.97,NNE,22,0.0,2.2,44,0.00,,,0.00,VWS V14.01,2013-01-22 07:08:00,
2013-01-21 23:13:00,53.1,31.7,29.97,North,0,0.0,3.6,44,0.00,,,0.00,VWS V14.01,2013-01-22 07:13:00,
2013-01-21 23:18:00,53.1,31.7,29.97,North,0,0.0,0.0,44,0.00,,,0.00,VWS V14.01,2013-01-22 07:18:00,
2013-01-21 23:23:00,53.1,32.3,29.97,North,0,2.7,3.6,45,0.00,,,0.00,VWS V14.01,2013-01-22 07:23:00,
2013-01-21 23:28:00,52.9,32.7,29.97,NNW,338,0.0,0.0,46,0.00,,,0.00,VWS V14.01,2013-01-22 07:28:00,
2013-01-21 23:33:00,52.7,33.0,29.97,North,0,3.6,3.6,47,0.00,,,0.00,VWS V14.01,2013-01-22 07:33:00,
2013-01-21 23:38:00,52.7,33.0,29.97,NNE,22,0.0,4.9,47,0.00,,,0.00,VWS V14.01,2013-01-22 07:38:00,
2013-01-21 23:43:00,52.7,33.0,29.97,NNE,22,2.2,2.2,47,0.00,,,0.00,VWS V14.01,2013-01-22 07:43:00,
2013-01-21 23:48:00,52.5,32.9,29.97,NNE,22,0.0,0.0,47,0.00,,,0.00,VWS V14.01,2013-01-22 07:48:00,
2013-01-21 23:54:00,52.3,32.7,29.97,NNE,22,0.0,0.0,47,0.00,,,0.00,VWS V14.01,2013-01-22 07:54:00,
2013-01-21 23:59:00,52.3,32.7,29.97,NNE,22,0.0,0.0,47,0.00,,,0.00,VWS V14.01,2013-01-22 07:59:00,